ONEWEB-0037, 45440

Orbit data source: Space-Track

ONEWEB-0037, 45440 is a payload satellite owned by One Web (UK) in LEO that was launched on Sat, 21 Mar 2020 UTC via a SOYUZ-2-1B launch vehicle from the Tyuratam Missile And Space Complex (TTMTR). Payload-class satellites include a variety of spacecraft equipped with specific instruments for various scientific and technological missions. These include communications satellites like Starlink; space stations such as the ISS; scientific satellites like the Hubble; Earth observation satellites from companies like Planet Labs, Umbra, and HawkEye 360; GPS; miniature CubeSats for education and research; and military/defense satellites.

Loading next visibility...
Identifier
45440, 2020-020S
Orbit
LEO
Country
Flag of UKUK
Related business
Manufacturer
One Web
Mission
Operational Commercial Communications
Bus & Motor
ARROW, Unknown motor
Mass
148 kg wet, ~140 kg dry
Launch date (UTC)
2020-03-21 (6 years ago)
Launch vehicle
SOYUZ-2-1B
Launch site
Tyuratam Missile And Space Complex (TTMTR)
Object type
Payload
Rocket body
Debris
Shape & HBR
Trap Box + 2 Pan, 6.7 m
Radar Cross Section
3.464 m², Large (>1 m²)

Expand to show TLE details & history
Last TLE update: 11 hours ago

TLE from 11 hours ago
0 ONEWEB-0037
1 45440U 20020S   26035.05206361 -.00000493  00000-0 -14281-2 0  9996
2 45440  87.8832  47.5191 0001924  90.3679 269.7670 13.11417162285247
Epoch: 2026-02-04T01:14Z
TLE epoch observation values (Epoch: 2026-02-04T01:14:58.295Z)
Latitude
0.00002°
Longitude
-105.44798°
Altitude
1,220.577 km
Speed
7.244 km/s
True Right ascension
03h 10m 04s
True Declination
0° 00' 00"
Sunlit
Object was in daylight at epoch
Visualization orbit readout
Latitude
Unknown
Longitude
Unknown
Altitude
Unknown
Speed
Unknown
Apparent Right ascension
Unknown
Apparent Declination
Unknown
Sunlit
N/A
Visualization observer readout
Local Sidereal Time
14:15:48
Azimuth
Unknown
Elevation
Unknown
Doppler factor
Unknown
Orbital elements
Apogee altitude
1,216.261 km
Perigee altitude
1,213.339 km
Semi-major axis
7,592.937 km
Eccentricity
0.00019
Inclination
87.8832°
RAAN
47.5191°
Arg. of periapsis
90.3679°
True anomaly
269.74495°
Mean anomaly
269.767°
Eccentric anomaly
269.75598°
Mean motion
3.28041 °/min
Orbital period
109.74 mins
BSTAR
-0.0014281
Loading maneuver chart data...
Computing Atmospheric mass density...
Loading historical data...
Loading historical data...
Loading historical data...
Loading historical data...
Loading historical data...
Loading historical data...
Loading historical data...

Documentation

Showing up to 5 results
|